Miscellaneous Local Product
Issued by NWS Hastings, NE

Home | Current Version | Previous Version | Text Only | Print | Product List | Glossary Off
Versions: 1 2 3 4 5 6 7 8 9 10 11 12 13 14 15 16 17 18 19 20 21 22 23 24 25 26 27 28 29 30 31 32 33 34 35 36 37 38 39 40 41 42 43 44 45 46 47 48 49 50

000
AXUS43 KGID 151202
MISGRI

GID CWA HOURLY WEATHER ROUNDUP
NATIONAL WEATHER SERVICE HASTINGS NE
700 AM CDT MON SEP 15 2014

NOTE: "FAIR" INDICATES FEW OR NO CLOUDS BELOW 12,000 FEET WITH NO
SIGNIFICANT WEATHER AND/OR OBSTRUCTIONS TO VISIBILITY.

...SOUTH CENTRAL NEBRASKA...

CITY           SKY/WX    TMP DP  RH WIND       PRES   REMARKS
GRAND ISLAND   CLOUDY    53  50  89 N18       30.15R
HASTINGS       MOCLDY    55  52  89 N15       30.11R
KEARNEY        CLOUDY    50  46  87 NW18      30.16R
ORD            CLOUDY    50  45  83 N12       30.19R
YORK           PTCLDY    55  54  94 N10G17    30.11R
AURORA         PTCLDY    54  53  96 N12G17    30.13R
LEXINGTON      PTCLDY    50  46  87 N12G17    30.18R
HOLDREGE       CLOUDY    51  48  90 N16G24    30.14R
HEBRON         MOCLDY    58  55  91 N3        30.06R

...NEBRASKA PANHANDLE...

CITY           SKY/WX    TMP DP  RH WIND       PRES   REMARKS
CHADRON        CLEAR     34  32  92 W3        30.30R
ALLIANCE       CLEAR     37  35  92 N5        30.28R WCI  33
SCOTTSBLUFF    CLEAR     36  36 100 NW3       30.30R
SIDNEY         MOCLDY    43  39  86 N10       30.28R

...WESTERN AND NORTH CENTRAL NEBRASKA...

CITY           SKY/WX    TMP DP  RH WIND       PRES   REMARKS
VALENTINE      PTCLDY    41  39  93 NW3       30.27R
AINSWORTH      MOCLDY    43  40  89 N3        30.26R
ONEILL         CLOUDY    48  46  90 N8        30.25R
BROKEN BOW     CLOUDY    50  44  80 N13       30.20R
IMPERIAL       CLOUDY    51  45  79 N15       30.22R
NORTH PLATTE   CLOUDY    50  43  77 N16G26    30.20R
MCCOOK         PTCLDY    53  50  89 N18       30.17R

...EASTERN NEBRASKA...

CITY           SKY/WX    TMP DP  RH WIND       PRES   REMARKS
NORFOLK        CLOUDY    51  47  86 N16G24    30.20R
SO SIOUX CITY  CLOUDY    53  47  79 N15       30.19R
TEKAMAH        CLOUDY    53  49  86 N17       30.13R
ALBION         MOCLDY    50  45  82 N10G16    30.19R
OMAHA EPPLEY   CLOUDY    60  57  89 N7        30.09R
OFFUTT AFB     CLOUDY    61  61 100 N5        30.07S
LINCOLN        CLOUDY    61  57  87 NW9       30.13R
NEBRASKA CITY  CLOUDY    60  58  92 NE7       30.05R
BEATRICE       MOCLDY    59  58  96 N8        30.06R
FALLS CITY     MOCLDY    61  59  93 SE9       29.99F

...NORTHERN KANSAS...

CITY           SKY/WX    TMP DP  RH WIND       PRES   REMARKS
GOODLAND       CLOUDY    54  53  97 N17       30.19R
HILL CITY      MOCLDY    57  54  89 N17G24    30.10R
NORTON         CLOUDY    55  50  82 N14       30.12R
PHILLIPSBURG   CLOUDY    57  57 100 N13       30.10R
SMITH CENTER   PTCLDY    55  55 100 N13       30.09R
BELOIT         CLEAR     57  57 100 N8        30.02R
HAYS           MOCLDY    57  54  88 S5        30.05R
RUSSELL        PTCLDY    59  58  96 W3        30.03R
CONCORDIA      MOCLDY    57  57 100 N6        30.02R
SALINA         CLEAR     64  60  87 W3        30.03R
TOPEKA         PTCLDY    66  63  90 S8        30.03R



USA.gov is the U.S. government's official web portal to all federal, state and local government web resources and services.